Location: ???????
(55.3754°N, 39.3545°E)
Time: 21:37:08
(UTC+00:00)

Cosmos 1602 Rocket - Pass Details

Date: 14 April 2026
Orbit: 596 x 626 km, 82.5° (Epoch: 16 May)

Event Time Altitude Azimuth Distance (km) Brightness Sun altitude
Rises 22:47:40 0° 345° (NNW) 2,879 7.8 -22.6°
Reaches altitude 10° 22:49:56 10° 342° (NNW) 1,966 6.8 -22.4°
Enters shadow 22:54:11 59° 264° (W) 703 3.6 -22.2°
